FREGAT DEB, 45620

Orbit data source: Space-Track

FREGAT DEB, 45620 is space debris in LEO originally from a launch on Mon, 18 Jul 2011 UTC launched from the Tyuratam Missile And Space Complex (TTMTR). Debris objects in space refer to the collection of defunct objects orbiting the Earth. Examples of debris include non-operational satellites, rocket bodies, and fragments generated from explosions, collisions, or faulty payload assembly.

Loading next visibility...
Identifier
45620, 2011-037P
Orbit
LEO
Country
Flag of CISCIS
Related business
Manufacturer
Lavochkin
Mission
Spacecraft
Bus & Motor
Unknown
Mass
Unknown
Launch date (UTC)
2011-07-18 (14 years ago)
Launch vehicle
Unknown
Launch site
Tyuratam Missile And Space Complex (TTMTR)
Object type
Payload
Rocket body
Debris
Shape & HBR
Unknown shape, 0.1 m
Radar Cross Section
Small (<0.1 m²)

Expand to show TLE details & history
Last TLE update: 16 hours ago

TLE from 16 hours ago
0 FREGAT DEB
1 45620U 11037P   25288.88538438  .00062073  00000-0  91772-2 0  9997
2 45620  51.4195 102.3187 1364533 103.1670 272.4648 12.43928943230732
Epoch: 2025-10-15T21:14Z
TLE epoch observation values (Epoch: 2025-10-15T21:14:57.210Z)
Latitude
-0.00003°
Longitude
118.92726°
Altitude
1,590.193 km
Speed
7.03 km/s
True Right ascension
06h 49m 16s
True Declination
0° 00' 00"
Sunlit
Object was in daylight at epoch
Visualization orbit readout
Latitude
Unknown
Longitude
Unknown
Altitude
Unknown
Speed
Unknown
Apparent Right ascension
Unknown
Apparent Declination
Unknown
Sunlit
N/A
Visualization observer readout
Local Sidereal Time
07:51:57
Azimuth
Unknown
Elevation
Unknown
Doppler factor
Unknown
Orbital elements
Apogee altitude
2,564.175 km
Perigee altitude
416.778 km
Semi-major axis
7,868.613 km
Eccentricity
0.13645
Inclination
51.4195°
RAAN
102.3187°
Arg. of periapsis
103.167°
True anomaly
256.92045°
Mean anomaly
272.4648°
Eccentric anomaly
264.68028°
Mean motion
3.10954 °/min
Orbital period
115.77 mins
BSTAR
0.0091772
Loading maneuver chart data...
Computing Atmospheric mass density...
Loading historical data...
Loading historical data...
Loading historical data...
Loading historical data...
Loading historical data...
Loading historical data...
Loading historical data...

Documentation

Showing up to 5 results
|